Regional Weather Roundup
Issued by NWS

Home | Current Version | Previous Version | Text Only | Print | Product List | Glossary On
Versions: 1 2 3 4 5 6 7 8 9 10 11 12 13 14 15 16 17 18 19 20 21 22 23 24 25 26 27 28 29 30 31 32 33 34 35 36 37 38 39 40 41 42 43 44 45 46 47 48 49 50
513
ASUS42 KFFC 201210
RWRGA
WEATHER ROUNDUP FOR GEORGIA
NATIONAL WEATHER SERVICE PEACHTREE CITY GA
700 AM EST MON FEB 20 2017

NOTE: "FAIR" INDICATES FEW OR NO CLOUDS BELOW 12,000 FEET WITH NO
SIGNIFICANT WEATHER AND/OR OBSTRUCTIONS TO VISIBILITY.

* = USE WITH CAUTION. THE STATIONS MARKED WITH AN ASTERISK MAY NOT
REPORT WEATHER SUCH AS PRECIPITATION, FOG, OR THUNDER AND ARE NOT
QUALITY CONTROLLED BY NWS.

THE REMARK "TC" DENOTES TEMPERATURE READING IN DEGREES CELSIUS.

GAZ001>058-201300-
NORTH GEORGIA

CITY           SKY/WX    TMP DP  RH WIND       PRES   REMARKS
ATLANTA        PTCLDY    51  45  79 E5        30.16R
6HR MIN TEMP:  49; 6HR MAX TEMP:  55;

ATHENS         PTCLDY    42  41  96 CALM      30.17R
6HR MIN TEMP:  42; 6HR MAX TEMP:  51;

CHAMBLEE       PTCLDY    43  40  89 CALM      30.17R
6HR MIN TEMP:  42; 6HR MAX TEMP:  48;

PEACHTREE CITY PTCLDY    39  37  92 CALM      30.17R
6HR MIN TEMP:  39; 6HR MAX TEMP:  44;

ROME           PTCLDY    43  40  89 CALM      30.18R
6HR MIN TEMP:  42; 6HR MAX TEMP:  47;

WEST ATLANTA   PTCLDY    41  39  93 CALM      30.17R
6HR MIN TEMP:  40; 6HR MAX TEMP:  48;

GAINESVILLE    PTCLDY    47  43  86 NE3       30.19R
6HR MIN TEMP:  46; 6HR MAX TEMP:  52;

CARTERSVILLE   PTCLDY    40  39  97 CALM      30.20R
6HR MIN TEMP:  39; 6HR MAX TEMP:  44;



CITY           SKY/WX    TMP DP  RH WIND       PRES   REMARKS
DALTON*        PTCLDY    37  37 100 CALM      30.20R
MARIETTA       PTCLDY    44  42  91 CALM      30.17R
KENNESAW*      CLEAR     43  43 100 CALM      30.20
CANTON*        PTCLDY    41  36  81 CALM      30.19R
$$

GAZ059>098-102>109-201300-
CENTRAL GEORGIA

CITY           SKY/WX    TMP DP  RH WIND       PRES   REMARKS
AUGUSTA-BUSH   CLEAR     43  41  93 CALM      30.16R
6HR MIN TEMP:  43; 6HR MAX TEMP:  50;

AUGUSTA-DANIEL CLEAR     49  44  83 CALM      30.17R
6HR MIN TEMP:  49; 6HR MAX TEMP:  58;

COLUMBUS       CLEAR     47  44  90 CALM      30.15R
6HR MIN TEMP:  46; 6HR MAX TEMP:  53;

MACON          PTCLDY    43  42  97 W5        30.16R
6HR MIN TEMP:  43; 6HR MAX TEMP:  50;

ROBINS AFB     PTCLDY    45  44  96 N5        30.15R


CITY           SKY/WX    TMP DP  RH WIND       PRES   REMARKS
LAGRANGE*      CLEAR     40  40 100 CALM      30.16R
SYLVANIA*      CLOUDY   N/A N/A N/A CALM      30.16R
MILLEDGEVILLE* PTCLDY    45  45 100 CALM      30.16R
$$

GAZ099>101-110>166-201300-
SOUTH GEORGIA

CITY           SKY/WX    TMP DP  RH WIND       PRES   REMARKS
SAVANNAH       PTCLDY    51  47  86 NE3       30.14S
6HR MIN TEMP:  48; 6HR MAX TEMP:  53;

VALDOSTA       CLEAR     46  45  96 CALM      30.13R
6HR MIN TEMP:  46; 6HR MAX TEMP:  52;

ALMA           CLEAR     48  47  96 CALM      30.13R
6HR MIN TEMP:  47; 6HR MAX TEMP:  51;

ST SIMONS      CLOUDY    53  50  89 CALM      30.12R
6HR MIN TEMP:  52; 6HR MAX TEMP:  57;

FT STEWART     CLEAR     47  45  94 CALM      30.12R
ALBANY         CLEAR     47  46  97 CALM      30.17R FOG
HUNTER AFB     CLEAR     50  50  99 NE3       30.11S
MOODY AFB      CLEAR     50  48  93 CALM      30.13R FOG
BRUNSWICK      FOG       50  50 100 CALM      30.13S VSB 1/4


CITY           SKY/WX    TMP DP  RH WIND       PRES   REMARKS
BAINBRIDGE*    CLOUDY    52  50  93 CALM      30.15R
MOULTRIE*      CLEAR     52  50  93 CALM      30.15R
VIDALIA*       CLOUDY    52  52 100 CALM      30.15R
WAYCROSS*      CLEAR     50  50 100 CALM      30.13R FOG
DOUGLAS*       CLEAR     52  48  87 CALM      30.15R
$$




USA.gov is the U.S. government's official web portal to all federal, state and local government web resources and services.